COSMOS 1275 DEB, 12652

Orbit data source: Space-Track

COSMOS 1275 DEB, 12652 is space debris in LEO originally from a launch on Thu, 04 Jun 1981 UTC launched from the Plesetsk Missile And Space Complex (PKMTR). Debris objects in space refer to the collection of defunct objects orbiting the Earth. Examples of debris include non-operational satellites, rocket bodies, and fragments generated from explosions, collisions, or faulty payload assembly.

Loading next visibility...
Identifier
12652, 1981-053G
Orbit
LEO
Country
Flag of CISCIS
Related business
Manufacturer
Unknown
Mission
Spacecraft
Bus & Motor
Unknown
Mass
Unknown
Launch date (UTC)
1981-06-04 (45 years ago)
Launch vehicle
Unknown
Launch site
Plesetsk Missile And Space Complex (PKMTR)
Object type
Payload
Rocket body
Debris
Shape & HBR
Unknown shape, 0.1 m
Radar Cross Section
Small (<0.1 m²)

Expand to show TLE details & history
Last TLE update: 17 hours ago

TLE from 17 hours ago
0 COSMOS 1275 DEB
1 12652U 81053G   26094.88451924  .00002101  00000-0  13342-2 0  9994
2 12652  82.9390  53.4834 0050353 187.4465 234.1812 14.02767851185609
Epoch: 2026-04-04T21:13Z
TLE epoch observation values (Epoch: 2026-04-04T21:13:42.462Z)
Latitude
60.4756°
Longitude
-85.57509°
Altitude
916.066 km
Speed
7.389 km/s
True Right ascension
04h 24m 11s
True Declination
60° 19' 52"
Sunlit
Object was in daylight at epoch
Visualization orbit readout
Latitude
Unknown
Longitude
Unknown
Altitude
Unknown
Speed
Unknown
Apparent Right ascension
Unknown
Apparent Declination
Unknown
Sunlit
N/A
Visualization observer readout
Local Sidereal Time
20:14:05
Azimuth
Unknown
Elevation
Unknown
Doppler factor
Unknown
Orbital elements
Apogee altitude
917.89 km
Perigee altitude
844.783 km
Semi-major axis
7,259.474 km
Eccentricity
0.00504
Inclination
82.939°
RAAN
53.4834°
Arg. of periapsis
187.4465°
True anomaly
233.71505°
Mean anomaly
234.1812°
Eccentric anomaly
233.94795°
Mean motion
3.50902 °/min
Orbital period
102.59 mins
BSTAR
0.0013342
Loading maneuver chart data...
Computing Atmospheric mass density...

Documentation

Showing up to 5 results
|